Location: Prague
(50.0830°N, 14.4670°E)
Time: 11:53:01
(UTC+01:00)

AO-7 - Pass Details

Date: 10 December 2021
Orbit: 1440 x 1459 km, 101.9° (Epoch: 29 January)

Event Time Altitude Azimuth Distance (km) Brightness Sun altitude
Rises 04:21:04 0° 20° (NNE) 4,551 ? -32.3°
Reaches altitude 10° 04:23:53 10° 23° (NNE) 3,571 ? -31.8°
Maximum altitude 04:32:12 69° 107° (ESE) 1,537 ? -30.5°
Drops below altitude 10° 04:40:30 10° 190° (S) 3,565 ? -29.2°
Sets 04:43:18 0° 193° (SSW) 4,543 ? -28.7°
